Weather History for PAEN - January, 2013

Change the Weather History Date:

Tuesday, January 15, 2013

  Actual Average Record
Temperature  
Mean Temperature 24 °F -  
Max Temperature 30 °F 21 °F 46 °F (2015)
Min Temperature 17 °F 4 °F -43 °F (1973)
Degree Days  
Heating Degree Days 42    
Moisture  
Dew Point 20 °F    
Average Humidity 82    
Maximum Humidity 100    
Minimum Humidity 69    
Precipitation  
Precipitation 0.00 in - - ()
Sea Level Pressure  
Sea Level Pressure 30.16 in    
Wind  
Wind Speed 10 mph (SSE)    
Max Wind Speed 17 mph    
Max Gust Speed -    
Visibility 10 miles    
Events      
Averages and records for this station are not official NWS values.
T = Trace of Precipitation, MM = Missing Value Source: NWS Daily Summary

Daily Weather History Graph

Daily Weather History Graph

Search for Another Location

Airport or City:

Trip Planner

Search our weather history database for the weather conditions in past years. The results will help you decide how hot, cold, wet, or windy it might be!

Date:

Astronomy

Jan. 15, 2013 Rise Set
Actual Time 9:56 AM AKST 4:33 PM AKST
Civil Twilight 9:02 AM AKST 5:27 PM AKST
Nautical Twilight 8:07 AM AKST 6:22 PM AKST
Astronomical Twilight 7:16 AM AKST 7:13 PM AKST
Moon 10:37 AM AKST (1/15) 11:13 PM AKST (1/15)
Length of Visible Light 8h 25m
Length of Day
6h 37m
Waxing Crescent, 20% of the Moon is Illuminated
Jan 15
Waxing Crescent
Jan 18
First Quarter
Jan 26
Full
Feb 3
Last Quarter
Feb 9
New

Hourly Weather History & Observations

Time (AKST) Temp. Windchill Dew Point Humidity Pressure Visibility Wind Dir Wind Speed Gust Speed Precip Events Conditions
12:53 AM 28.0 °F 16.1 °F 21.0 °F 75% 29.99 in 10.0 mi South 16.1 mph - N/A   Clear
1:53 AM 28.0 °F 15.7 °F 19.9 °F 72% 30.01 in 10.0 mi South 17.3 mph - N/A   Clear
3:53 AM 27.0 °F 15.2 °F 19.9 °F 75% 30.04 in 10.0 mi South 15.0 mph - N/A   Clear
4:53 AM 27.0 °F 16.7 °F 19.9 °F 75% 30.06 in 10.0 mi South 11.5 mph - N/A   Clear
5:53 AM 28.0 °F 17.0 °F 19.9 °F 72% 30.07 in 10.0 mi South 13.8 mph - N/A   Clear
6:53 AM 27.0 °F 17.3 °F 19.9 °F 75% 30.09 in 10.0 mi South 10.4 mph - N/A   Clear
7:53 AM 28.0 °F 20.0 °F 19.0 °F 69% 30.11 in 10.0 mi South 8.1 mph - N/A   Clear
8:53 AM 27.0 °F 20.5 °F 19.0 °F 72% 30.14 in 10.0 mi SSE 5.8 mph - N/A   Clear
9:53 AM 26.1 °F 20.5 °F 18.0 °F 71% 30.16 in 10.0 mi SSE 4.6 mph - N/A   Clear
10:53 AM 27.0 °F 21.6 °F 19.0 °F 72% 30.17 in 10.0 mi SSE 4.6 mph - N/A   Clear
11:53 AM 28.0 °F 19.3 °F 19.9 °F 72% 30.19 in 10.0 mi South 9.2 mph - N/A   Clear
12:53 PM 30.0 °F 22.4 °F 21.0 °F 69% 30.19 in 10.0 mi South 8.1 mph - N/A   Clear
1:53 PM 28.9 °F 19.2 °F 25.0 °F 85% 30.19 in 10.0 mi SSW 11.5 mph - N/A   Clear
2:53 PM 28.9 °F 19.8 °F 24.1 °F 82% 30.19 in 10.0 mi SSW 10.4 mph - N/A   Scattered Clouds
3:53 PM 28.0 °F 24.2 °F 21.9 °F 78% 30.20 in 10.0 mi West 3.5 mph - N/A   Overcast
4:53 PM 27.0 °F - 21.0 °F 78% 30.21 in 10.0 mi Calm Calm - N/A   Clear
5:53 PM 23.0 °F - 19.0 °F 85% 30.22 in 10.0 mi Calm Calm - N/A   Mostly Cloudy
6:53 PM 21.0 °F - 19.0 °F 92% 30.22 in 10.0 mi Calm Calm - N/A   Overcast
7:53 PM 18.0 °F - 16.0 °F 92% 30.22 in 10.0 mi Calm Calm - N/A   Partly Cloudy
8:48 PM 17.6 °F 12.3 °F 15.8 °F 93% 30.21 in 10.0 mi NE 3.5 mph - N/A   Mostly Cloudy
8:53 PM 17.6 °F 12.3 °F 15.8 °F 93% 30.21 in 10.0 mi ENE 3.5 mph - N/A   Mostly Cloudy
9:53 PM 19.9 °F 13.4 °F 18.0 °F 92% 30.21 in 10.0 mi North 4.6 mph - N/A   Overcast
10:13 PM 19.4 °F 14.3 °F 19.4 °F 100% 30.19 in 10.0 mi NE 3.5 mph - N/A   Overcast
10:24 PM 19.4 °F 12.8 °F 17.6 °F 93% 30.19 in 10.0 mi NE 4.6 mph - N/A   Overcast
10:53 PM 19.9 °F - 19.0 °F 96% 30.19 in 10.0 mi Calm Calm - N/A   Mostly Cloudy
11:53 PM 21.0 °F 14.6 °F 19.9 °F 96% 30.19 in 10.0 mi NW 4.6 mph - N/A   Overcast